Tracking 17938 objects as of 21-February-2017
HD Live streaming from Space Station
objects crossing your sky now

NAVSTAR 19 (USA 54)

Track NAVSTAR 19 (USA 54) now!
NAVSTAR 19 (USA 54) is classified as:


NORAD ID: 20533
Int'l Code: 1990-025A
Perigee: 20,961.9 km
Apogee: 21,168.1 km
Inclination: 55.6 °
Period: 753.8 minutes
Semi major axis: 27435 km
RCS: 0.6015 m2 (medium)
Launch date: March 26, 1990
Source: United States (US)
Launch site: AIR FORCE EASTERN TEST RANGE (AFETR)
PRN:
Your satellite tracking list
Your tracking list is empty





NASA's NSSDC Master Catalog

Two Line Element Set (TLE):
1 20533U 90025A   17051.51353602 -.00000076  00000-0  00000+0 0  9991
2 20533  55.5764  10.0285 0037565 156.1374 316.2630  1.91038911190066
Source of the keplerian elements: AFSPC